Tracking 19854 objects as of 22-Sep-2019
HD Live streaming from Space Station
objects crossing your sky now

MOLNIYA 3-8

Track MOLNIYA 3-8 now!
MOLNIYA 3-8 is classified as:


NORAD ID: 10455
Int'l Code: 1977-105A
Perigee: 1,113.3 km
Apogee: 39,273.2 km
Inclination: 62.2 °
Period: 718.1 minutes
Semi major axis: 26564 km
RCS: 13.5006 m2 (large)
Launch date: October 28, 1977
Source: Commonwealth of Independent States (former USSR) (CIS)
Launch site: PLESETSK MISSILE AND SPACE COMPLEX (PKMTR)
aabbcc
Your satellite tracking list
Your tracking list is empty




NASA's NSSDC Master Catalog

Two Line Element Set (TLE):
1 10455U 77105A   19262.80061234 +.00001460 +00000-0 +13404-1 0  9993
2 10455 062.1592 149.0191 7182557 274.4412 014.1107 02.00519222307047
Source of the keplerian elements: AFSPC